When you browse on this site, cookies collect data to enhance your experience and personalize the content and advertising you see.
Visit our Privacy Policy to learn more. By continuing to use the site, you agree to this use of cookies and data.
  • In United Kingdom
  • List of Countries
  • For 7 days
  • Water Temperature
  • Satellite Maps
  • Weather Map
  • Weather Widgets
  • user-avatar
    Login

    Hourly Weather Jasliq

    Today, 16 June, Sunday

    Time Temperature Precipitation Wind Pressure Humidity
    00:00 +24°C° 0 mm 2 mps 747 mmHg 23%
    01:00 +23°C° 0 mm 1 mps 747 mmHg 25%
    02:00 +21°C° 0 mm 2 mps 747 mmHg 25%
    03:00 +21°C° 0 mm 2 mps 747 mmHg 25%
    04:00 +21°C° 0 mm 2 mps 748 mmHg 25%
    05:00 +22°C° 0 mm 3 mps 747 mmHg 23%
    06:00 +25°C° 0 mm 3 mps 747 mmHg 20%
    07:00 +26°C° 0 mm 4 mps 747 mmHg 18%
    08:00 +27°C° 0 mm 4 mps 748 mmHg 16%
    09:00 +29°C° 0 mm 4 mps 748 mmHg 15%
    10:00 +30°C° 0 mm 4 mps 748 mmHg 14%
    11:00 +31°C° 0 mm 3 mps 748 mmHg 14%
    12:00 +33°C° 0 mm 3 mps 747 mmHg 14%
    13:00 +34°C° 0 mm 3 mps 747 mmHg 14%
    14:00 +35°C° 0 mm 3 mps 747 mmHg 14%
    15:00 +35°C° 0 mm 3 mps 746 mmHg 13%
    16:00 +36°C° 0 mm 4 mps 746 mmHg 13%
    17:00 +35°C° 0 mm 3 mps 746 mmHg 12%
    18:00 +35°C° 0 mm 3 mps 745 mmHg 12%
    19:00 +35°C° 0 mm 3 mps 745 mmHg 12%
    20:00 +33°C° 0 mm 3 mps 745 mmHg 13%
    21:00 +31°C° 0 mm 3 mps 745 mmHg 14%
    22:00 +29°C° 0 mm 3 mps 745 mmHg 14%
    23:00 +29°C° 0 mm 3 mps 745 mmHg 15%

    Tomorrow, 17 June, Monday

    Time Temperature Precipitation Wind Pressure Humidity
    00:00 +28°C° 0 mm 3 mps 744 mmHg 15%
    01:00 +27°C° 0 mm 3 mps 744 mmHg 15%
    02:00 +26°C° 0 mm 3 mps 744 mmHg 17%
    03:00 +26°C° 0 mm 3 mps 744 mmHg 18%
    04:00 +25°C° 0 mm 2 mps 744 mmHg 20%
    05:00 +26°C° 0 mm 2 mps 744 mmHg 19%
    06:00 +28°C° 0 mm 2 mps 744 mmHg 19%
    07:00 +29°C° 0 mm 2 mps 745 mmHg 19%
    08:00 +31°C° 0 mm 2 mps 745 mmHg 18%
    09:00 +32°C° 0 mm 1 mps 745 mmHg 17%
    10:00 +34°C° 0 mm 1 mps 745 mmHg 16%
    11:00 +36°C° 0 mm 2 mps 745 mmHg 14%
    12:00 +37°C° 0 mm 2 mps 745 mmHg 12%
    13:00 +38°C° 0 mm 3 mps 744 mmHg 10%
    14:00 +38°C° 0 mm 3 mps 744 mmHg 11%
    15:00 +38°C° 0 mm 4 mps 744 mmHg 12%
    16:00 +38°C° 0 mm 4 mps 744 mmHg 13%
    17:00 +36°C° 0 mm 5 mps 743 mmHg 19%
    18:00 +34°C° 0 mm 6 mps 743 mmHg 25%
    19:00 +31°C° 0 mm 8 mps 743 mmHg 31%
    20:00 +29°C° 0 mm 7 mps 743 mmHg 32%
    21:00 +29°C° 0 mm 7 mps 744 mmHg 33%
    22:00 +28°C° 0 mm 7 mps 744 mmHg 35%
    23:00 +27°C° 0 mm 6 mps 744 mmHg 35%

    Day after tomorrow, 18 June, Tuesday

    Time Temperature Precipitation Wind Pressure Humidity
    00:00 +27°C° 0 mm 6 mps 744 mmHg 35%
    01:00 +27°C° 0 mm 6 mps 744 mmHg 34%
    02:00 +27°C° 0 mm 5 mps 745 mmHg 35%
    03:00 +26°C° 0 mm 5 mps 745 mmHg 36%
    04:00 +26°C° 0 mm 5 mps 745 mmHg 36%
    05:00 +26°C° 0 mm 5 mps 745 mmHg 35%
    06:00 +27°C° 0 mm 5 mps 745 mmHg 34%
    07:00 +27°C° 0 mm 5 mps 746 mmHg 32%
    08:00 +29°C° 0 mm 5 mps 746 mmHg 29%
    09:00 +30°C° 0 mm 6 mps 746 mmHg 27%
    10:00 +32°C° 0 mm 6 mps 746 mmHg 24%
    11:00 +33°C° 0 mm 6 mps 746 mmHg 23%
    12:00 +33°C° 0 mm 7 mps 746 mmHg 22%
    13:00 +33°C° 0 mm 7 mps 746 mmHg 21%
    14:00 +33°C° 0 mm 8 mps 746 mmHg 22%
    15:00 +32°C° 0 mm 8 mps 745 mmHg 24%
    16:00 +31°C° 0 mm 9 mps 745 mmHg 25%
    17:00 +29°C° 0 mm 8 mps 745 mmHg 25%
    18:00 +29°C° 0 mm 8 mps 745 mmHg 26%
    19:00 +28°C° 0 mm 8 mps 745 mmHg 26%
    20:00 +27°C° 0 mm 7 mps 746 mmHg 29%
    21:00 +26°C° 0 mm 7 mps 746 mmHg 32%
    22:00 +24°C° 0 mm 6 mps 746 mmHg 35%
    23:00 +23°C° 0 mm 6 mps 746 mmHg 36%

    19 June, Wednesday

    Time Temperature Precipitation Wind Pressure Humidity
    00:00 +23°C° 0 mm 5 mps 746 mmHg 37%
    01:00 +23°C° 0 mm 4 mps 746 mmHg 38%
    02:00 +22°C° 0 mm 4 mps 746 mmHg 40%
    03:00 +22°C° 0 mm 4 mps 745 mmHg 41%
    04:00 +21°C° 0 mm 5 mps 745 mmHg 43%
    05:00 +23°C° 0 mm 5 mps 745 mmHg 40%
    06:00 +24°C° 0 mm 6 mps 746 mmHg 37%
    07:00 +26°C° 0 mm 7 mps 746 mmHg 33%
    08:00 +28°C° 0 mm 7 mps 746 mmHg 29%
    09:00 +29°C° 0 mm 7 mps 746 mmHg 24%
    10:00 +32°C° 0 mm 7 mps 746 mmHg 19%
    11:00 +33°C° 0 mm 7 mps 746 mmHg 18%
    12:00 +33°C° 0 mm 8 mps 746 mmHg 17%
    13:00 +34°C° 0 mm 8 mps 746 mmHg 17%
    14:00 +33°C° 0 mm 7 mps 746 mmHg 17%
    15:00 +33°C° 0 mm 7 mps 746 mmHg 18%
    16:00 +33°C° 0 mm 7 mps 746 mmHg 18%
    17:00 +32°C° 0 mm 7 mps 746 mmHg 21%
    18:00 +30°C° 0 mm 7 mps 746 mmHg 23%
    19:00 +28°C° 0 mm 7 mps 746 mmHg 25%
    20:00 +27°C° 0 mm 5 mps 746 mmHg 28%
    21:00 +26°C° 0 mm 4 mps 746 mmHg 31%
    22:00 +25°C° 0 mm 3 mps 746 mmHg 34%
    23:00 +24°C° 0 mm 3 mps 746 mmHg 34%

    20 June, Thursday

    Time Temperature Precipitation Wind Pressure Humidity
    00:00 +23°C° 0 mm 2 mps 746 mmHg 34%
    01:00 +23°C° 0 mm 2 mps 746 mmHg 34%
    02:00 +21°C° 0 mm 2 mps 745 mmHg 36%
    03:00 +21°C° 0 mm 2 mps 745 mmHg 38%
    04:00 +21°C° 0 mm 3 mps 745 mmHg 40%
    05:00 +22°C° 0 mm 3 mps 745 mmHg 36%
    06:00 +25°C° 0 mm 3 mps 746 mmHg 33%
    07:00 +26°C° 0 mm 3 mps 746 mmHg 30%
    08:00 +28°C° 0 mm 4 mps 746 mmHg 25%
    09:00 +30°C° 0 mm 4 mps 746 mmHg 21%
    10:00 +33°C° 0 mm 4 mps 746 mmHg 16%
    11:00 +34°C° 0 mm 5 mps 746 mmHg 15%
    12:00 +35°C° 0 mm 5 mps 746 mmHg 15%
    13:00 +36°C° 0 mm 6 mps 746 mmHg 14%
    14:00 +36°C° 0 mm 6 mps 746 mmHg 14%
    15:00 +36°C° 0 mm 7 mps 745 mmHg 14%
    16:00 +36°C° 0 mm 7 mps 745 mmHg 15%
    17:00 +34°C° 0 mm 7 mps 745 mmHg 16%
    18:00 +33°C° 0 mm 7 mps 745 mmHg 17%
    19:00 +32°C° 0 mm 6 mps 745 mmHg 19%
    20:00 +29°C° 0 mm 5 mps 745 mmHg 22%
    21:00 +28°C° 0 mm 4 mps 746 mmHg 25%
    22:00 +26°C° 0 mm 3 mps 746 mmHg 28%
    23:00 +26°C° 0 mm 3 mps 746 mmHg 30%

    21 June, Friday

    Time Temperature Precipitation Wind Pressure Humidity
    00:00 +25°C° 0 mm 2 mps 745 mmHg 31%
    01:00 +25°C° 0 mm 2 mps 745 mmHg 33%
    02:00 +24°C° 0 mm 2 mps 745 mmHg 35%
    03:00 +24°C° 0 mm 2 mps 746 mmHg 37%
    04:00 +23°C° 0 mm 2 mps 746 mmHg 39%
    05:00 +25°C° 0 mm 2 mps 746 mmHg 38%
    06:00 +26°C° 0 mm 2 mps 746 mmHg 36%
    07:00 +27°C° 0 mm 2 mps 747 mmHg 35%
    08:00 +29°C° 0 mm 1 mps 747 mmHg 30%
    09:00 +31°C° 0 mm 1 mps 747 mmHg 24%
    10:00 +31°C° 0 mm 0 mps 747 mmHg 19%
    11:00 +34°C° 0 mm 1 mps 747 mmHg 18%
    12:00 +35°C° 0 mm 1 mps 747 mmHg 17%
    13:00 +35°C° 0 mm 1 mps 747 mmHg 15%
    14:00 +37°C° 0 mm 2 mps 746 mmHg 15%
    15:00 +37°C° 0 mm 2 mps 746 mmHg 14%
    16:00 +37°C° 0 mm 2 mps 746 mmHg 14%
    17:00 +37°C° 0 mm 2 mps 746 mmHg 14%
    18:00 +37°C° 0 mm 3 mps 746 mmHg 15%
    19:00 +36°C° 0 mm 3 mps 745 mmHg 15%
    20:00 +34°C° 0 mm 3 mps 746 mmHg 18%
    21:00 +31°C° 0 mm 3 mps 746 mmHg 21%
    22:00 +29°C° 0 mm 3 mps 746 mmHg 24%
    23:00 +29°C° 0 mm 3 mps 745 mmHg 24%
    Show more